Regional Weather Roundup
Issued by NWS Huntsville, AL

Home | Current Version | Previous Version | Text Only | Print | Product List | Glossary On
Versions: 1 2 3 4 5 6 7 8 9 10 11 12 13 14 15 16 17 18 19 20 21 22 23 24 25 26 27 28 29 30 31 32 33 34 35 36 37 38 39 40 41 42 43 44 45 46 47 48 49 50
000
ASUS44 KHUN 291010
RWRHUN

WEATHER ROUNDUP FOR THE TENNESSEE VALLEY
NATIONAL WEATHER SERVICE HUNTSVILLE AL
400 AM CST THU JAN 29 2015

ALZ001>004-291100-
NORTHWEST ALABAMA

CITY           SKY/WX    TMP DP  RH WIND       PRES   REMARKS
COURTLAND HCN    N/A     45 N/A N/A S9          N/A
RUSSELLVILLE     N/A     46 N/A N/A MISG        N/A
SHOALS AIRPORT PTCLDY    48  29  47 S8        30.13F
SHOALS TVA RES   N/A     46 N/A N/A MISG        N/A
$$

ALZ005>007-016-291100-
NORTH CENTRAL ALABAMA

CITY           SKY/WX    TMP DP  RH WIND       PRES   REMARKS
CULLMAN AG STN   N/A     41 N/A N/A CALM        N/A
DECATUR AP     PTCLDY    42  31  64 S10       30.18F
HUNTSVILLE AP  PTCLDY    44  29  55 S10       30.17F
HUN NWS/UAH      N/A     43  24  47 SE6         N/A
MERIDIANVILLE  PTCLDY    43  21  42 SE7       30.17F
REDSTONE ARSN  PTCLDY    42  27  55 S9        30.17F
VINEMONT AP    FAIR      42  28  57 S8        30.20F
$$

ALZ008>010-291100-
NORTHEAST ALABAMA

CITY           SKY/WX    TMP DP  RH WIND       PRES   REMARKS
ALBERTVILLE    MOCLDY    39  32  75 S3        30.20R
FORT PAYNE     MOCLDY    34  23  64 CALM      30.23R
SCOTTSBORO AP  MOCLDY    32  28  86 CALM      30.22F
VALLEY HEAD      N/A     43 N/A N/A MISG        N/A
$$

TNZ076-096-097-291100-
SOUTHEASTERN MIDDLE TENNESSEE

CITY           SKY/WX    TMP DP  RH WIND       PRES   REMARKS
TULLAHOMA      CLEAR     43  23  45 S12       30.13F
WINCHESTER     CLEAR     41  25  52 SE7       30.17F
$$

...SURROUNDING SITES...

CITY           SKY/WX    TMP DP  RH WIND       PRES   REMARKS
ATLANTA        MOCLDY    36  28  73 CALM      30.27F
ANNISTON       PTCLDY    33  29  85 CALM      30.24F
BIRMINGHAM     PTCLDY    46  29  51 S7        30.24S
CHATTANOOGA    PTCLDY    30  25  81 CALM      30.24F
CORINTH        FAIR      48  32  53 S10G17    30.09S
DALTON         PTCLDY    32  28  86 CALM      30.24S
GADSDEN        MOCLDY   N/A N/A N/A CALM      30.24S
GOLDEN TRNGL   CLEAR     43  30  61 SE9       30.18S
HALEYVILLE       N/A     40  30  67 S13       30.19F WCI  32
JACKSON TN     CLOUDY    54  35  48 S17G28    30.01F
LEWISBURG      FAIR      45  28  51 S8        30.10F
MEMPHIS        CLOUDY    59  39  47 SW18G31   30.02F
MURFREESBORO   FAIR      45  27  49 S10       30.09F
NASHVILLE      MOCLDY    46  27  47 SE8       30.07F
OXFORD MS      MOCLDY    50  39  66 S6        30.10S
ROME           PTCLDY    30  24  78 CALM      30.24F
SAVANNAH       MOCLDY    50  30  46 S9        30.09S
TUPELO         PTCLDY    44  32  62 S10       30.12F
TUSCALOOSA     CLEAR     37  32  82 CALM      30.22S
$$

...GULF COAST WEATHER...

CITY           SKY/WX    TMP DP  RH WIND       PRES   REMARKS
GULFPORT       CLEAR     41  39  93 CALM      30.24S
PASCAGOULA     CLEAR     37  36  96 CALM      30.25F
MOBILE         CLEAR     41  39  93 CALM      30.25F
GULF SHORES    MOSUNNY   42  41  97 CALM      30.25S
PENSACOLA      MOCLDY    42  40  92 NW6       30.25F
DESTIN         PTCLDY    47  41  80 E7        30.27S
PANAMA CITY    PTCLDY    41  40  96 E2        30.30R
APPALACHICOLA  PTCLDY    41  35  79 NE6       30.29R
$$



USA.gov is the U.S. government's official web portal to all federal, state and local government web resources and services.